Location: Newark
(43.0000°N, 1.6781°W)
Time: 03:56:12
(UTC+00:00)

Explorer 7 - Pass Details

Date: 23 April 2021
Orbit: 484 x 677 km, 50.3° (Epoch: 07 May)

Event Time Altitude Azimuth Distance (km) Brightness Sun altitude
Rises 22:26:44 0° 295° (WNW) 2,718 11.1 -29.8°
Reaches altitude 10° 22:29:04 10° 305° (NW) 1,857 10.2 -30.0°
Enters shadow 22:32:09 32° 347° (NNW) 1,013 8.6 -30.2°
Maximum altitude 22:32:59 35° 12° (NNE) 960 - -30.3°
Drops below altitude 10° 22:37:08 10° 79° (E) 1,969 - -30.6°
Sets 22:39:40 0° 88° (E) 2,908 - -30.8°
